Weather History for Providence, RI

Change the Weather History Date:

Tuesday, February 28, 2012

  Actual Average Record
Temperature  
Mean Temperature 41 °F 34 °F  
Max Temperature 49 °F 43 °F 66 °F (1976)
Min Temperature 32 °F 26 °F 2 °F (1907)
Degree Days  
Heating Degree Days 24 31  
Month to date heating degree days 798 926  
Since 1 July heating degree days 3385 4062  
Cooling Degree Days 0 0  
Month to date cooling degree days 0 0  
Year to date cooling degree days 0 0  
Moisture  
Dew Point 18 °F    
Average Humidity 48    
Maximum Humidity 67    
Minimum Humidity 28    
Precipitation  
Precipitation 0.00 in 0.14 in 2.21 in (1984)
Month to date precipitation 0.79 3.29  
Year to date precipitation 4.19 7.15  
Snow  
Snow 0.00 in 0.30 in 5.90 in (1949)
Month to date snowfall 1.3 8.5  
Since 1 July snowfall 14.3 27.7  
Snow Depth 0.00 in    
Sea Level Pressure  
Sea Level Pressure 30.26 in    
Wind  
Wind Speed 10 mph (NW)    
Max Wind Speed 29 mph    
Max Gust Speed 37 mph    
Visibility 10 miles    
Events      
T = Trace of Precipitation, MM = Missing Value Source: NWS Daily Summary

Daily Weather History Graph

Daily Weather History Graph

Search for Another Location

Airport:

Trip Planner

Search our weather history database for the weather conditions in past years. The results will help you decide how hot, cold, wet, or windy it might be!

Date:

Astronomy

Feb. 28, 2012 Rise Set
Actual Time 6:22 AM EST 5:34 PM EST
Civil Twilight 5:55 AM EST 6:02 PM EST
Nautical Twilight 5:22 AM EST 6:34 PM EST
Astronomical Twilight 4:50 AM EST 7:06 PM EST
Moon 9:22 AM EST (2/28) No Moon Set
Length of Visible Light 12h 07m
Length of Day
11h 11m
Waxing Crescent, 37% of the Moon is Illuminated
Feb 28
Waxing Crescent
Feb 29
First Quarter
Mar 8
Full
Mar 14
Last Quarter
Mar 22
New

Hourly Weather History & Observations

Time (EST) Temp. Windchill Dew Point Humidity Pressure Visibility Wind Dir Wind Speed Gust Speed Precip Events Conditions
12:51 AM 43.0 °F 41.3 °F 32.0 °F 65% 30.05 in 10.0 mi WNW 3.5 mph - N/A   Clear
1:51 AM 42.1 °F 39.2 °F 28.0 °F 58% 30.06 in 10.0 mi NW 4.6 mph - N/A   Partly Cloudy
2:51 AM 41.0 °F 33.1 °F 23.0 °F 49% 30.10 in 10.0 mi NW 15.0 mph - N/A   Partly Cloudy
3:51 AM 39.0 °F 31.4 °F 19.0 °F 45% 30.15 in 10.0 mi NW 12.7 mph 21.9 mph N/A   Partly Cloudy
4:51 AM 39.0 °F 34.0 °F 19.9 °F 46% 30.17 in 10.0 mi WNW 6.9 mph - N/A   Scattered Clouds
5:51 AM 39.0 °F 31.0 °F 21.0 °F 49% 30.19 in 10.0 mi NW 13.8 mph - N/A   Scattered Clouds
6:51 AM 39.0 °F 31.0 °F 21.0 °F 49% 30.22 in 10.0 mi WNW 13.8 mph 19.6 mph N/A   Partly Cloudy
7:51 AM 39.9 °F 33.9 °F 21.9 °F 49% 30.25 in 10.0 mi NW 9.2 mph 19.6 mph N/A   Partly Cloudy
8:51 AM 41.0 °F 32.2 °F 19.9 °F 43% 30.27 in 10.0 mi WNW 18.4 mph 27.6 mph N/A   Partly Cloudy
9:51 AM 43.0 °F 35.7 °F 19.0 °F 38% 30.28 in 10.0 mi NW 15.0 mph 23.0 mph N/A   Partly Cloudy
10:51 AM 45.0 °F 38.2 °F 19.0 °F 36% 30.28 in 10.0 mi NNW 15.0 mph 23.0 mph N/A   Partly Cloudy
11:51 AM 46.9 °F - 18.0 °F 32% 30.29 in 10.0 mi WNW 16.1 mph 23.0 mph N/A   Partly Cloudy
12:51 PM 46.9 °F - 17.1 °F 30% 30.28 in 10.0 mi NW 12.7 mph 23.0 mph N/A   Scattered Clouds
1:51 PM 48.2 °F - 17.6 °F 30% 30.27 in 10.0 mi NW 17.3 mph 24.2 mph N/A   Mostly Cloudy
2:51 PM 48.0 °F - 18.0 °F 30% 30.28 in 10.0 mi NNW 13.8 mph 21.9 mph N/A   Mostly Cloudy
3:51 PM 46.9 °F - 16.0 °F 29% 30.28 in 10.0 mi NNW 13.8 mph 19.6 mph N/A   Mostly Cloudy
4:51 PM 46.0 °F 41.0 °F 16.0 °F 30% 30.29 in 10.0 mi NNW 10.4 mph - N/A   Scattered Clouds
5:51 PM 44.1 °F 40.1 °F 16.0 °F 32% 30.32 in 10.0 mi WNW 6.9 mph - N/A   Scattered Clouds
6:51 PM 42.1 °F 38.4 °F 16.0 °F 35% 30.35 in 10.0 mi NW 5.8 mph - N/A   Scattered Clouds
7:51 PM 37.9 °F 32.1 °F 12.9 °F 36% 30.37 in 10.0 mi NNE 8.1 mph - N/A   Scattered Clouds
8:51 PM 39.0 °F 36.8 °F 12.0 °F 33% 30.39 in 10.0 mi North 3.5 mph - N/A   Scattered Clouds
9:51 PM 36.0 °F 33.3 °F 12.0 °F 37% 30.40 in 10.0 mi North 3.5 mph - N/A   Scattered Clouds
10:51 PM 36.0 °F 33.3 °F 12.0 °F 37% 30.38 in 10.0 mi NNE 3.5 mph - N/A   Mostly Cloudy
11:51 PM 34.0 °F 31.0 °F 16.0 °F 48% 30.38 in 10.0 mi NE 3.5 mph - N/A   Overcast